Helicity
507 465 413 227 197 146 112 160 172 104 94 203 200 202 159 153 124 120 116 127 111 129 126 128 117 117 159 85 50 53 93 127 104 69 100 111 121 117 102 145 132 146 148 140
462 361 301 313 159 91 133 188 173 103 112 194 165 175 139 123 110 112 138 132 162 163 134 135 90 73 191 154 121 116 99 87 138 110 81 95 108 92 111 150 148 155 136 151
396 333 246 147 82 93 109 168 173 148 149 163 193 202 125 99 87 84 116 124 114 108 73 83 141 129 135 93 121 139 119 134 139 157 110 115 103 85 96 130 189 163 181 122
321 188 137 88 79 76 118 143 161 153 150 120 133 176 175 115 116 89 97 118 92 121 138 83 82 87 87 81 92 114 154 167 153 122 111 130 102 115 114 114 107 171 139 123
180 137 65 79 67 84 128 141 134 128 176 134 126 154 140 119 142 126 118 111 157 127 143 161 162 138 154 153 119 138 152 129 154 129 130 132 127 123 135 164 112 133 109 50
144 51 73 73 70 106 124 116 108 124 132 120 155 143 111 134 149 137 143 134 115 126 151 143 116 101 94 95 100 102 112 115 108 101 86 103 121 103 94 110 122 118 49 49
55 69 86 105 93 79 93 96 119 139 147 117 103 156 190 168 142 144 143 123 141 122 80 69 60 64 61 71 79 82 139 146 140 134 144 104 108 125 127 110 97 95 117 114
53 84 103 117 124 94 87 97 120 125 151 101 124 127 120 116 109 106 107 128 158 110 84 89 103 84 91 85 105 123 157 157 150 159 144 132 84 102 131 108 73 127 104 250
67 79 106 112 117 109 102 121 108 119 126 115 166 146 124 109 107 110 117 133 106 100 126 134 157 169 153 141 131 133 112 113 169 168 133 114 126 112 91 86 97 221 297 346
56 69 78 81 97 108 76 98 106 108 121 111 132 156 137 138 162 166 166 158 103 104 146 164 155 156 156 201 200 167 167 168 139 121 136 144 132 99 92 68 92 177 223 207
55 55 62 73 72 83 75 79 98 110 130 111 121 134 143 132 141 160 196 143 133 140 176 185 169 179 166 177 151 137 167 145 139 131 143 100 177 126 104 150 276 223 169 124
45 57 64 59 55 67 76 83 77 84 104 110 103 82 64 88 166 166 173 174 194 201 193 246 277 306 305 284 236 246 233 155 149 213 231 186 216 119 90 122 123 142 124 78
60 71 55 46 55 62 75 92 81 90 98 80 91 82 51 58 70 57 130 100 119 148 142 172 200 239 250 244 237 242 259 200 241 210 125 63 83 76 89 34 2 45 115 106
75 67 62 66 68 59 65 78 60 70 76 92 85 37 33 51 74 52 41 61 87 104 114 177 219 265 155 187 153 145 129 118 117 94 83 24 17 72 46 33 -0 50 40 39
96 92 79 59 52 47 47 70 66 71 79 105 73 21 62 80 68 53 36 43 78 127 178 194 203 165 133 141 123 148 104 97 130 122 103 98 63 7 18 2 -30 -54 -55 -71
81 69 55 42 33 31 31 61 44 35 37 77 66 28 47 52 40 28 52 68 78 114 156 159 168 149 139 166 176 107 136 108 106 125 100 109 92 78 45 30 4 -32 -66 -44
54 39 27 30 30 38 69 74 32 6 11 49 42 39 26 32 32 33 40 40 88 126 161 193 185 170 136 156 153 186 154 89 94 72 54 51 23 37 31 23 25 41 35 35
22 10 7 26 39 39 27 16 33 13 20 30 46 35 38 32 31 48 56 91 127 145 181 174 157 96 155 150 195 101 49 15 35 55 51 44 26 41 38 50 57 45 55 67
9 10 35 21 16 23 27 24 15 35 41 46 39 60 56 28 32 52 68 82 104 88 158 164 85 104 117 86 73 67 2 -35 -25 -13 -0 13 18 -0 -18 -21 8 62 51 57
43 24 28 57 29 15 22 30 48 49 53 41 26 49 40 48 36 29 32 74 59 82 90 88 105 151 126 -1 -39 -45 -73 -71 -54 -1 12 27 4 -14 -15 4 27 24 63 65
30 39 52 36 18 23 41 59 57 55 55 20 7 20 42 55 63 41 38 43 63 74 32 53 59 25 -13 -77 -114 -114 -61 -22 -2 9 43 40 34 21 4 -20 28 37 46 31
32 39 43 38 44 58 68 64 50 42 54 43 37 32 50 39 50 33 23 59 40 5 -4 25 4 -27 -71 -226 -218 -132 -13 31 78 84 56 29 25 8 -11 -27 -6 47 50 44
25 34 43 38 34 86 80 70 65 62 55 39 37 32 36 30 -26 8 -8 10 40 16 9 4 21 -77 -186 -238 -190 -40 59 104 126 107 85 97 79 28 16 -13 -16 50 56 45
28 30 61 47 45 22 38 52 60 66 74 69 58 40 27 -9 -11 -34 13 -6 2 3 19 56 -80 -168 -207 -124 -46 17 121 157 128 120 145 172 44 16 2 7 15 -2 -4 18
15 19 31 18 8 28 57 69 71 73 92 71 44 20 -24 -7 -0 -25 -14 -6 -15 -14 26 -89 -172 -150 -89 -9 32 77 149 127 109 128 141 134 75 56 53 36 36 36 21 20
13 8 18 37 54 63 90 87 84 101 107 88 65 -23 -6 17 -11 -6 -7 -4 -2 -22 -92 -109 -113 -72 4 46 65 125 129 88 89 95 97 54 58 77 63 96 96 74 94 113
18 18 22 32 64 79 97 105 84 93 97 71 34 -6 -26 -1 9 22 5 31 -24 -79 -95 -93 -38 -5 49 54 101 131 90 75 78 69 58 17 31 50 88 134 126 133 141 151
Wind_Speed
33 34 37 40 39 37 34 41 50 35 27 37 37 43 39 40 38 38 37 42 42 45 41 36 40 32 30 39 34 31 35 44 50 41 34 37 41 44 40 54 57 53 55 64
33 32 35 39 38 31 33 40 39 32 26 45 40 38 39 37 36 35 35 35 44 44 39 38 37 36 32 41 37 35 37 39 52 47 40 40 46 48 51 54 57 57 62 53
36 35 36 34 32 30 29 35 43 35 31 35 41 40 40 36 29 31 33 38 43 42 38 39 39 38 35 36 37 38 36 42 54 58 47 41 46 47 50 54 67 68 60 63
33 30 34 34 29 24 26 32 39 34 43 37 34 33 37 35 38 30 34 37 37 42 42 38 37 40 38 29 40 40 43 57 58 69 75 66 67 66 65 60 61 72 76 81
21 25 23 28 20 16 26 34 35 29 38 31 27 27 35 36 29 30 33 35 48 43 41 43 46 44 40 41 42 44 41 59 60 72 70 76 82 80 75 78 82 85 87 99
20 23 25 21 13 14 24 26 27 30 31 30 31 34 33 33 27 30 35 42 48 48 42 43 42 40 42 41 43 46 45 49 56 67 61 69 83 76 85 81 76 78 97 87
13 17 21 22 17 23 25 27 26 30 38 29 29 31 30 34 34 33 39 42 46 40 40 44 39 30 34 36 34 31 44 47 52 66 61 74 55 48 53 62 67 66 66 61
13 16 20 22 24 24 23 24 28 28 35 30 29 29 37 39 39 38 42 42 40 45 46 51 51 48 46 42 30 28 24 40 52 58 61 73 77 58 52 54 62 53 52 37
10 15 19 23 24 24 23 28 32 31 32 37 35 32 35 36 39 38 37 36 40 41 42 43 48 50 52 47 41 36 27 30 48 54 64 68 45 37 39 45 53 36 32 36
10 14 19 22 26 28 26 28 32 31 32 35 37 37 37 38 41 45 41 39 43 36 45 48 51 55 48 52 46 47 43 45 52 64 69 67 57 41 43 55 45 32 33 38
12 15 19 22 27 30 31 31 35 34 37 38 36 37 40 40 41 44 41 45 42 44 47 49 50 52 50 51 51 52 50 50 50 51 66 77 55 48 53 41 38 40 43 47
12 16 20 24 28 30 33 33 34 34 37 40 36 37 36 33 38 38 36 42 45 44 48 48 51 55 56 59 63 54 62 56 69 58 49 49 60 43 34 40 47 53 59 50
14 17 21 26 28 30 33 33 32 36 41 42 37 39 38 29 34 32 38 41 40 44 46 52 54 59 61 67 68 74 68 71 75 80 65 75 66 65 68 60 59 63 55 61
17 19 21 25 28 28 31 34 33 35 37 46 41 34 37 30 31 28 33 43 47 47 49 54 58 65 59 71 75 81 75 81 87 105 99 96 100 91 82 81 72 69 69 73
16 20 24 27 28 28 30 33 34 37 36 44 47 54 44 35 30 39 40 42 48 51 57 57 64 63 71 75 82 89 78 86 93 115 94 97 100 93 91 96 96 90 87 89
19 22 25 26 26 26 30 33 36 34 32 40 48 44 44 44 43 45 43 42 44 44 52 57 56 56 66 77 85 82 77 79 84 104 103 107 110 110 103 104 99 99 98 92
20 22 24 26 26 29 33 34 32 28 34 41 49 48 39 46 45 46 43 37 42 45 52 55 61 64 61 73 88 91 88 88 93 96 103 120 119 118 100 102 104 102 99 92
21 22 22 25 25 26 31 35 31 30 39 42 47 49 49 46 50 53 39 45 42 43 49 51 52 50 38 53 55 65 72 75 78 83 89 98 98 100 105 107 108 109 97 88
20 22 23 26 31 31 33 33 31 29 37 45 44 51 55 44 49 48 45 37 44 37 32 36 36 34 31 38 53 72 75 87 96 96 91 95 100 102 104 103 100 99 97 91
23 23 27 31 31 31 32 35 38 37 36 34 42 40 48 47 51 46 44 32 35 36 32 30 26 25 39 39 39 40 46 52 65 86 89 87 90 92 95 98 102 95 88 84
25 28 30 30 27 32 37 40 39 38 39 34 36 39 45 43 46 44 34 35 36 33 28 23 25 35 24 13 64 62 52 43 42 50 64 77 87 88 88 88 86 83 82 81
26 25 28 29 34 36 37 38 36 34 38 32 37 41 41 41 40 37 36 33 30 24 35 36 35 26 54 60 62 58 46 47 42 49 58 66 71 76 75 73 70 65 64 66
28 31 32 34 35 37 38 40 37 35 31 33 37 45 43 40 40 41 40 32 35 38 38 37 32 50 57 72 73 59 52 44 41 44 50 48 50 58 65 62 64 52 45 50
30 32 36 35 36 35 33 34 33 31 32 36 43 45 40 43 42 40 37 40 39 38 39 37 55 69 74 74 64 58 55 53 49 43 36 35 34 36 52 51 45 52 52 45
30 32 35 33 31 32 31 32 33 32 34 40 46 47 44 44 42 39 39 38 39 39 40 52 65 73 77 69 63 56 54 48 48 41 33 26 22 19 23 37 39 31 36 39
29 30 33 32 36 34 32 34 36 31 32 34 42 46 42 41 38 40 41 39 40 45 58 66 73 77 70 63 55 51 46 45 33 28 27 25 23 26 15 12 15 20 21 21
28 31 29 33 40 38 39 34 36 32 30 37 43 42 43 42 43 41 40 43 50 62 68 75 77 67 64 59 52 48 45 42 37 29 23 24 26 18 19 12 9 6 11 15
Wind_Direction
289 304 314 315 317 322 322 322 316 339 347 327 330 323 332 338 333 339 335 329 323 322 329 332 330 338 345 341 336 332 313 298 286 291 294 290 284 278 278 278 283 288 294 294
291 300 312 313 313 316 320 316 320 336 335 317 317 327 328 331 331 333 337 333 329 333 333 332 331 322 342 333 328 323 320 299 283 287 294 292 281 278 279 285 288 285 291 301
294 296 302 311 312 313 315 318 314 323 322 326 323 324 326 325 338 335 330 325 324 326 327 321 331 331 341 338 327 321 317 298 282 280 293 295 287 285 283 281 280 287 285 296
295 299 302 306 305 309 313 314 314 323 316 316 318 326 332 328 330 338 335 331 321 321 326 326 318 319 322 334 327 322 311 292 290 283 281 285 282 281 283 282 285 286 289 288
306 317 333 310 304 309 309 310 315 324 321 330 324 323 320 320 328 330 330 321 319 321 320 319 321 326 329 327 328 320 317 299 295 286 284 281 281 279 280 281 283 284 285 278
314 324 334 332 315 314 316 320 325 326 323 321 316 314 318 326 329 331 324 316 316 313 319 322 321 322 319 320 322 317 314 308 300 292 293 288 281 279 277 280 283 285 276 286
339 345 351 349 334 309 319 320 324 319 314 314 313 323 324 321 323 323 324 321 316 325 329 323 318 313 311 311 309 308 310 307 302 292 296 284 294 301 295 288 287 289 291 293
39 14 1 355 347 334 324 325 323 323 316 316 316 322 317 318 317 316 313 315 322 325 323 317 317 316 315 311 295 295 297 305 301 294 290 289 286 298 299 293 290 297 289 298
14 355 345 347 347 348 343 332 324 324 325 317 326 322 318 319 318 316 318 326 324 324 318 314 311 310 314 316 321 328 297 294 293 295 289 286 303 316 322 310 289 308 306 300
357 343 336 339 336 338 335 334 333 327 325 323 322 318 320 322 319 314 319 321 322 322 313 306 304 302 308 305 306 310 309 300 287 285 285 287 296 305 311 291 291 307 310 304
325 332 336 335 334 333 333 332 335 328 321 321 323 323 316 319 318 312 322 320 319 314 309 308 306 307 305 302 300 297 298 301 296 292 283 281 303 299 291 299 300 301 301 298
336 336 338 335 334 333 334 330 338 341 326 323 331 327 325 323 326 321 322 315 317 317 313 313 313 306 308 305 301 304 294 292 289 289 291 299 304 312 313 304 294 291 290 295
348 341 339 334 334 338 338 338 344 338 330 326 328 328 333 318 320 319 316 317 315 313 315 311 307 300 304 298 296 296 296 296 289 288 287 284 291 291 291 293 292 288 293 289
337 335 336 343 345 348 348 340 347 341 338 324 329 343 336 329 325 323 314 312 312 312 311 306 303 301 304 296 294 291 291 292 287 280 281 282 277 279 282 281 286 284 286 284
346 347 346 345 347 349 348 347 342 339 336 326 325 325 333 333 321 318 318 311 308 307 305 302 300 302 300 296 293 288 291 286 281 276 282 279 277 280 281 277 275 277 280 278
360 356 351 351 353 356 348 340 348 347 344 335 329 334 331 334 333 325 318 313 312 309 310 307 305 302 301 298 294 297 292 288 285 281 280 277 275 273 275 273 274 274 274 274
6 360 359 359 3 355 345 342 351 4 353 337 329 331 339 339 338 334 329 322 318 314 312 307 303 301 298 297 296 295 298 295 290 286 283 274 272 270 274 272 271 268 266 268
1 360 2 3 8 8 350 351 357 359 346 340 332 330 333 343 336 331 333 325 322 319 315 317 311 314 309 309 312 310 310 307 301 293 287 281 279 275 269 266 264 262 264 265
11 15 28 8 353 348 348 358 360 0 346 336 335 331 332 346 340 338 339 340 330 334 328 330 336 329 322 328 322 306 291 295 292 292 290 283 275 272 267 263 262 261 259 260
28 8 354 347 351 360 359 354 344 344 348 346 337 345 339 346 345 344 344 351 346 342 351 358 352 346 217 238 263 274 281 279 274 285 288 285 278 273 268 262 257 258 258 258
354 349 346 355 5 354 345 341 342 344 341 347 348 347 345 353 346 346 352 348 346 352 352 332 301 221 122 285 295 292 286 278 268 264 263 266 273 272 266 261 258 254 254 254
0 6 4 357 347 346 342 341 346 345 342 353 349 351 353 352 344 347 342 349 340 2 239 235 261 220 298 300 301 299 290 286 278 272 268 266 261 263 260 255 251 251 252 253
2 353 349 347 344 336 337 334 339 342 352 354 356 350 349 341 305 308 304 322 254 254 234 244 218 294 298 305 306 300 294 290 286 280 277 267 251 228 220 245 241 250 252 252
350 346 337 339 340 339 342 342 350 354 352 352 346 343 337 303 293 275 285 252 254 249 241 256 299 301 303 305 302 300 299 298 296 290 281 284 283 241 208 232 242 240 244 250
350 350 339 340 347 347 350 349 345 347 347 342 337 325 296 281 280 261 256 250 245 251 271 287 296 301 304 302 301 299 300 298 299 291 282 276 283 276 245 226 231 241 240 240
356 349 344 348 345 345 346 341 339 343 344 346 329 300 286 276 264 253 248 258 262 285 292 293 299 302 300 298 296 295 293 294 285 273 259 251 213 208 299 314 274 250 244 233
352 349 351 341 337 335 335 339 336 341 341 328 306 284 263 261 253 251 257 259 276 289 292 297 299 296 295 294 291 293 292 290 284 268 242 204 230 331 15 279 278 243 212 202